Flag for Namibia Weather past 2 weeks in Windhoek, Namibia

Now
61 °F

Refreshingly cool.


Feels Like: 61 °F
Forecast: 41 / 69 °F
Wind: 1 mph from Northwest

Location: Windhoek

Current Time: Jul 24, 2014 at 9:53:09 PM

Latest Report: Jul 24, 2014 at 9:00 PM


Visibility: N/A

Pressure: 30.27 "Hg

Humidity: 31%

Dew point: 30 °F

Location of WindhoekLocation

Historic Weather in Windhoek — Graph

°F

Windhoek temperature yesterday

Maximum temperature yesterday: 77 °F (at 1:00 PM)
Minimum temperature yesterday: 48 °F (at 4:00 AM)
Average temperature yesterday: 63 °F

Past Weeks' High & Low Weather Summary

 TemperatureHumidityPressure
High84 °F (Jul 14, 1:00 PM)53% (Jul 18, 5:00 AM)30.45 "Hg (Jul 18, 5:00 AM)
Low36 °F (Jul 19, 6:00 AM)6% (Jul 19, 2:00 PM)30.15 "Hg (Jul 18, 2:00 PM)
Average62 °F26%30.32 "Hg
* Reported Jul 9 8:00 PM — Jul 24 8:00 PM, Windhoek, Weather by CustomWeather, © 2014

Note: Actual official high and low records may vary slightly from our data, if they occured in-between our weather recording intervals... More about our weather records

Advertising

Windhoek weather history for previous 24 hours

 ConditionsComfort  
Time TempWeatherWind HumidityBarometerVisibility
8:00 PM
Jul 24
61 °FRefreshingly cool.3 mph31%30.24 "HgN/A
7:00 PM64 °FClear.6 mph24%30.24 "Hg10 mi
6:00 PM68 °FClear.6 mph18%30.21 "Hg10 mi
5:00 PM73 °FClear.9 mph12%30.21 "Hg10 mi
4:00 PM77 °FSunny.6 mph11%30.18 "Hg10 mi
3:00 PM79 °FSunny.8 mph12%30.21 "Hg10 mi
2:00 PM77 °FSunny.7 mph13%30.21 "Hg10 mi
1:00 PM77 °FSunny.8 mph14%30.24 "Hg10 mi
12:00 PM75 °FSunny.7 mph15%30.27 "Hg10 mi
11:00 AM73 °FSunny.6 mph16%30.30 "Hg10 mi
10:00 AM70 °FSunny.5 mph17%30.33 "Hg10 mi
9:00 AM66 °FSunny.3 mph21%30.36 "Hg10 mi
8:00 AM59 °FSunny.No wind29%30.33 "Hg10 mi
7:00 AM50 °FSunny.7 mph37%30.33 "Hg10 mi
6:00 AM48 °FSunny.8 mph40%30.30 "Hg10 mi
5:00 AM52 °FCool.6 mph35%30.30 "HgN/A
4:00 AM52 °FCool.5 mph32%30.30 "HgN/A
3:00 AM52 °FCool.5 mph35%30.30 "HgN/A
2:00 AM54 °FCool.5 mph33%30.30 "HgN/A
1:00 AM54 °FCool.3 mph33%30.30 "HgN/A
12:00 AM54 °FCool.6 mph33%30.30 "HgN/A
11:00 PM
Jul 23
55 °FRefreshingly cool.6 mph31%30.33 "HgN/A
10:00 PM57 °FRefreshingly cool.6 mph29%30.33 "HgN/A
9:00 PM59 °FRefreshingly cool.5 mph27%30.30 "HgN/A
Weather by CustomWeather, © 2014

See weather overviewHow to use our weather pages